Tracking 28052 objects as of 21-Sep-2023
HD Live streaming from Space Station
objects crossing your sky now

STARLINK-3697

Track STARLINK-3697 now!
10-day predictions
STARLINK-3697 is classified as:


NORAD ID: 51962
Int'l Code: 2022-025G
Perigee: 548.3 km
Apogee: 550.5 km
Inclination: 53.1 °
Period: 95.5 minutes
Semi major axis: 6920 km
RCS: Unknown
Launch date: March 9, 2022
Source: United States (US)
Launch site: AIR FORCE EASTERN TEST RANGE (AFETR)
Your satellite tracking list
Your tracking list is empty




NASA's NSSDC Master Catalog

Two Line Element Set (TLE):
1 51962U 22025G   23263.89701024 -.00003569  00000-0 -21107-3 0  9990
2 51962  53.0532 111.5123 0001551  85.7883 274.3284 15.08014648 85198
Source of the keplerian elements: AFSPC